FENGYUN 1C DEB

Satellite information

Favourite Embed

Satellite Type and Status

DEBRISIN ORBIT

Key statistics

Satellite FENGYUN 1C DEB at a glance.

Uptime

9553

Days in orbit

Revolutions

≈ 14.4

Per day

Orbit

SSO

Sun Synchronous Orbit

Inclination

98.3

Latest

Satellite identification and parameters

Extended collection of information and parameters for FENGYUN 1C DEB.

Object identification

Identified? True

Debris? True

Object name: FENGYUN 1C DEB

International designator: 1999-025CSE

Object number (NORAD): 32136

Object ID (CCSDS): 32136

Country: PEOPLES REPUBLIC OF CHINA (PRC)

Current information (Y/N): Y

RCS size: SMALL

Orbital parameters

Period: 100.187 minutes

Inclination: 98.2603 deg

SMA: 7145.529 km

Apoapsis: 814.799 km

Periapsis: 719.988 km

RAAN: 189.1477 deg

Eccentricy: 0.0066343

Argument of periapsis: 301.1974 deg

Mean anomaly: 58.2722 deg

Mean motion: 14.37312536 rev/day

Mean motion (dot): 0.00000981 rev/day2

B* drag term: 0.00033447 1/REarth

Two-line elements (TLE)

Creation date: July 4, 2025, 3:20 a.m.

Reference frame: TEME

Reference center: EARTH

Epoch: July 3, 2025, 7:08 p.m. UTC

TLE line 0: 0 FENGYUN 1C DEB

TLE line 1: 1 32136U 99025CSE 25184.79752232 .00000981 00000-0 33447-3 0 9999

TLE line 2: 2 32136 98.2603 189.1477 0066343 301.1974 58.2722 14.37312536627634

Live tracking on map

Real-time ground track for satellite FENGYUN 1C DEB.

In-orbit conjunctions

A list of the most updated potential collisions computed for object FENGYUN 1C DEB.

Target Orbit TCA Probability of collision Miss distance Type
COSMOS 1275 DEB LEO 2025-06-25 05:14:12 0.0001093271 272.0 (m) DEBRIS
COSMOS 1656 LEO 2024-10-09 06:05:59 0.0003399863 332.0 (m) PAYLOAD
THORAD AGENA D DEB SSO 2024-09-27 21:37:35 0.0006055373 385.0 (m) DEBRIS

Associated space launch

Chinese polar orbiting meteorological satellite

FENGYUN 1C DEB was lifted into orbit during the mission ‘Long March 4B | Feng Yun 1C’, on board a Long March 4B space rocket.

The launch took place on May 10, 1999, 1:33 a.m. from Launch Complex 7.

For more information about the launch, click the button.

Launch to space Long March 4B | Feng Yun 1C
Long March 4B | Feng Yun 1C

Agency: N/A

Status: Launch Successful

Launch date: May 10, 1999, 1:33 a.m. UTC

Rocket: Long March 4B

Launch pad: Launch Complex 7

Location: Taiyuan Satellite Launch Center, People's Republic of China

...

Latest news about this satellite

There are no fresh news available about this satellite. Check back as we update our databases every day.


Newsletter sign-up

Weekly statistics, charts and insights to help you stay on top of the space industry.